This is the latest recevied weather packets stored in our database for station/object OE5RPP. If no packets are shown the sender has not sent any weather packets the latest 10 day(s).
| Time | Temp. | Humidity | Pressure | Rain* | Wind** | Luminosity | Snow |
|---|---|---|---|---|---|---|---|
| 1787431571 | 13.33° C | 46% | 1024.9 hPa | 0 mm | - | - | - |
| 1787430970 | 13.33° C | 45% | 1024.9 hPa | 0 mm | - | - | - |
| 1787430371 | 13.33° C | 43% | 1024.9 hPa | 0 mm | - | - | - |
| 1787429770 | 13.33° C | 41% | 1024.9 hPa | 0 mm | - | - | - |
| 1787429170 | 13.33° C | 40% | 1024.9 hPa | 0 mm | - | - | - |
| 1787428570 | 13.33° C | 39% | 1024.9 hPa | 0 mm | - | - | - |
| 1787427970 | 13.89° C | 39% | 1024.9 hPa | 0 mm | - | - | - |
| 1787427370 | 13.89° C | 35% | 1024.9 hPa | 0 mm | - | - | - |
| 1787426770 | 13.89° C | 34% | 1024.9 hPa | 0 mm | - | - | - |
| 1787426170 | 14.44° C | 34% | 1023.9 hPa | 0 mm | - | - | - |
| 1787425570 | 15° C | 32% | 1023.9 hPa | 0 mm | - | - | - |
| 1787424970 | 15° C | 32% | 1023.9 hPa | 0 mm | - | - | - |
| 1787424371 | 15.56° C | 26% | 1023.9 hPa | 0 mm | - | - | - |
| 1787423770 | 16.11° C | 25% | 1023.9 hPa | 0 mm | - | - | - |
| 1787423170 | 16.67° C | 22% | 1023.9 hPa | 0 mm | - | - | - |
| 1787422571 | 17.22° C | 21% | 1023.9 hPa | 0 mm | - | - | - |
| 1787421970 | 17.22° C | 21% | 1023.9 hPa | 0 mm | - | - | - |
| 1787421370 | 17.78° C | 21% | 1023.9 hPa | 0 mm | - | - | - |
| 1787420771 | 17.78° C | 21% | 1023.9 hPa | 0 mm | - | - | - |
| 1787420170 | 18.33° C | 21% | 1022.9 hPa | 0 mm | - | - | - |
| 1787419570 | 18.89° C | 21% | 1022.9 hPa | 0 mm | - | - | - |
| 1787418970 | 19.44° C | 21% | 1022.9 hPa | 0 mm | - | - | - |
| 1787418371 | 19.44° C | 21% | 1022.9 hPa | 0 mm | - | - | - |
| 1787417771 | 20.56° C | 20% | 1022.9 hPa | 0 mm | - | - | - |
| 1787417171 | 20.56° C | 20% | 1022.9 hPa | 0 mm | - | - | - |
* Rain latest hour (hover to see other rain measurements)
** Current wind speed in m/s (hover to see current wind gust speed)